Weather History for Vernal, UT

Change the Weather History Date:

Tuesday, February 5, 2013

  Actual Average Record
Temperature  
Mean Temperature 13 °F 22 °F  
Max Temperature 23 °F 32 °F 56 °F (1963)
Min Temperature 3 °F 12 °F -18 °F (1982)
Degree Days  
Heating Degree Days 52 43  
Month to date heating degree days 251 218  
Since 1 July heating degree days 4810 4613  
Cooling Degree Days 0 0  
Month to date cooling degree days 0 0  
Year to date cooling degree days 0 0  
Moisture  
Dew Point 7 °F    
Average Humidity 77    
Maximum Humidity 92    
Minimum Humidity 62    
Precipitation  
Precipitation 0.00 in 0.01 in 0.31 in (1975)
Month to date precipitation 0.00 0.08  
Year to date precipitation 0.87 0.58  
Sea Level Pressure  
Sea Level Pressure 30.26 in    
Wind  
Wind Speed 2 mph (ENE)    
Max Wind Speed 8 mph    
Max Gust Speed 9 mph    
Visibility 3 miles    
Events      
T = Trace of Precipitation, MM = Missing Value Source: NWS Daily Summary

Daily Weather History Graph

Daily Weather History Graph

Search for Another Location

Airport:

Trip Planner

Search our weather history database for the weather conditions in past years. The results will help you decide how hot, cold, wet, or windy it might be!

Date:

Astronomy

Feb. 05, 2013 Rise Set
Actual Time 7:23 AM MST 5:41 PM MST
Civil Twilight 6:54 AM MST 6:10 PM MST
Nautical Twilight 6:22 AM MST 6:42 PM MST
Astronomical Twilight 5:50 AM MST 7:14 PM MST
Moon 3:08 AM MST (2/5) 1:01 PM MST (2/5)
Length of Visible Light 11h 15m
Length of Day
10h 18m
Waning Crescent, 26% of the Moon is Illuminated
Feb 5
Waning Crescent
Feb 10
New
Feb 17
First Quarter
Feb 25
Full
Mar 4
Last Quarter

Hourly Weather History & Observations

Time (MST) Temp. Windchill Dew Point Humidity Pressure Visibility Wind Dir Wind Speed Gust Speed Precip Events Conditions
12:53 AM 3.9 °F - -0.9 °F 80% 30.40 in 4.0 mi Calm Calm - N/A   Haze
1:21 AM 5.0 °F -4.1 °F 1.4 °F 85% 30.18 in 4.0 mi NE 4.6 mph - N/A   Scattered Clouds
1:51 AM 5.0 °F - 1.4 °F 85% 30.19 in 3.0 mi Calm Calm - N/A   Mostly Cloudy
1:53 AM 3.9 °F - 1.0 °F 88% 30.41 in 3.0 mi Calm Calm - N/A   Mostly Cloudy
2:24 AM 6.8 °F - 3.2 °F 85% 30.19 in 1.8 mi Calm Calm - N/A   Overcast
2:31 AM 6.8 °F - 3.2 °F 85% 30.19 in 1.0 mi Calm Calm - N/A   Overcast
2:46 AM 6.8 °F - 3.2 °F 85% 30.20 in 2.0 mi Calm Calm - N/A   Overcast
2:53 AM 7.0 °F - 5.0 °F 92% 30.40 in 1.8 mi Calm Calm - N/A   Overcast
3:00 AM 8.6 °F - 6.8 °F 92% 30.19 in 1.2 mi Calm Calm - N/A   Overcast
3:09 AM 8.6 °F - 5.0 °F 85% 30.18 in 2.0 mi Calm Calm - N/A   Overcast
3:27 AM 8.6 °F 2.0 °F 6.8 °F 92% 30.18 in 3.0 mi NW 3.5 mph - N/A   Overcast
3:33 AM 8.6 °F 2.0 °F 6.8 °F 92% 30.18 in 1.8 mi WNW 3.5 mph - N/A   Overcast
3:40 AM 8.6 °F - 6.8 °F 92% 30.18 in 1.0 mi Calm Calm - N/A   Overcast
3:49 AM 8.6 °F - 6.8 °F 92% 30.19 in 0.8 mi Calm Calm - N/A   Overcast
3:53 AM 9.0 °F 2.4 °F 7.0 °F 92% 30.38 in 1.2 mi NNW 3.5 mph - N/A   Overcast
4:01 AM 10.4 °F - 6.8 °F 85% 30.18 in 2.0 mi Calm Calm - N/A   Overcast
4:25 AM 8.6 °F - 6.8 °F 92% 30.18 in 3.0 mi Calm Calm - N/A   Overcast
4:53 AM 10.0 °F 1.8 °F 7.0 °F 87% 30.36 in 5.0 mi WSW 4.6 mph - N/A   Overcast
5:53 AM 7.0 °F - 3.0 °F 84% 30.40 in 5.0 mi Calm Calm - N/A   Clear
6:53 AM 5.0 °F -2.1 °F 1.9 °F 87% 30.42 in 4.0 mi East 3.5 mph - N/A   Clear
7:28 AM 3.2 °F - -0.4 °F 85% 30.18 in 2.0 mi Calm Calm - N/A   Clear
7:53 AM 3.9 °F - -0.0 °F 84% 30.43 in 2.5 mi Calm Calm - N/A   Clear
8:53 AM 8.1 °F - 6.1 °F 92% 30.44 in 2.5 mi Calm Calm - N/A   Clear
9:15 AM 8.6 °F - 8.6 °F 100% 30.20 in 3.0 mi Calm Calm - N/A   Clear
9:23 AM 8.6 °F - 8.6 °F 100% 30.20 in 2.5 mi Calm Calm - N/A   Clear
9:53 AM 12.9 °F - 10.9 °F 92% 30.41 in 2.5 mi Calm Calm - N/A   Scattered Clouds
10:07 AM 14.0 °F - 10.4 °F 86% 30.20 in 3.0 mi Calm Calm - N/A   Scattered Clouds
10:53 AM 10.9 °F 1.4 °F 7.0 °F 84% 30.43 in 4.0 mi SE 5.8 mph - N/A   Overcast
11:53 AM 12.0 °F 5.9 °F 7.0 °F 80% 30.40 in 4.0 mi East 3.5 mph - N/A   Haze
12:53 PM 16.0 °F 10.4 °F 9.0 °F 74% 30.35 in 5.0 mi East 3.5 mph - 0.00 in   Haze
1:53 PM 21.0 °F - 10.9 °F 65% 30.29 in 6.0 mi Calm Calm - N/A   Haze
2:53 PM 21.0 °F - 12.0 °F 68% 30.24 in 6.0 mi Calm Calm - N/A   Haze
3:53 PM 19.9 °F 12.1 °F 12.9 °F 74% 30.22 in 6.0 mi ESE 5.8 mph - N/A   Haze
4:53 PM 17.1 °F 11.7 °F 10.9 °F 77% 30.22 in 5.0 mi East 3.5 mph - N/A   Haze
5:53 PM 16.0 °F 10.4 °F 10.0 °F 77% 30.23 in 5.0 mi East 3.5 mph - N/A   Haze
6:53 PM 15.1 °F - 10.0 °F 80% 30.25 in 6.0 mi Calm Calm - N/A   Haze
7:53 PM 15.1 °F 9.4 °F 10.0 °F 80% 30.25 in 6.0 mi NNE 3.5 mph - N/A   Haze
8:53 PM 17.1 °F - 10.9 °F 77% 30.21 in 6.0 mi Calm Calm - N/A   Haze
9:53 PM 18.0 °F - 12.0 °F 78% 30.18 in 5.0 mi Calm Calm - N/A   Haze
10:53 PM 19.0 °F - 12.9 °F 77% 30.18 in 4.0 mi Calm Calm - N/A   Haze
11:53 PM 19.0 °F - 12.9 °F 77% 30.17 in 4.0 mi Calm Calm - N/A   Haze